Вернуться в каталог

COSMOS 1818 COOLANT

АктивенLEO
NORAD 36935·DEBRIS·🇷🇺 Russia

Запущен Feb 1, 1987 с Baikonur Cosmodrome

Loading…

Ближайшие Пролёты (ближайшие 24 часа)

TLE

УстаревшееSource: Space-Track

Эпоха: Sep 6, 2026, 09:52 UTC

1 36935U 87011P   26249.41122996  .00000448  00000-0  16948-3 0  9997
2 36935  65.0063 293.0424 0020447 280.8593  79.0195 14.41273743353394

Отслеживайте COSMOS 1818 COOLANT в реальном времени с AllMySat

Download on the App Store